{"data":{"norad_id":66156,"intl_designator":"2025-240L","name":"STARLINK-35621","alt_names":[],"object_type":"PAYLOAD","status":"ACTIVE","operator":null,"country":"US","launch_date":"2025-10-25","launch_site_code":"AFWTR","launch_vehicle":null,"mission":null,"orbit_class":"UNKNOWN","rcs_meters":null,"size_class":null,"mass_kg":null,"dimensions":null,"purposes":["comms"],"wikipedia_slug":null,"has_3d_model":false,"image_url":null,"decayed_at":null,"tle_current":{"epoch":"2026-05-25T03:56:36.935232Z","epoch_age_seconds":54847,"freshness":"FRESH","line1":"1 66156U 25240L   26145.16431638  .00016470  00000+0  56686-3 0  9998","line2":"2 66156  53.1602  67.8385 0001328  85.7861 274.3292 15.30206279 33694","mean_motion":15.30206279,"eccentricity":0.0001328,"inclination_deg":53.1602,"raan_deg":67.8385,"arg_perigee_deg":85.7861,"mean_anomaly_deg":274.3292,"bstar":0.00056686,"rev_number":3369,"period_min":94.104959557547,"perigee_km":474.28619885613,"apogee_km":476.10644418633,"semimajor_km":6853.3333215212,"source":"CELESTRAK","updated_at":"2026-05-25T13:38:21.070618Z"}}}